{"data":{"norad_id":68423,"intl_designator":"2026-067H","name":"SPOQC","alt_names":[],"object_type":"PAYLOAD","status":"ACTIVE","operator":null,"country":"NETH","launch_date":"2026-03-30","launch_site_code":"AFWTR","launch_vehicle":null,"mission":null,"orbit_class":"UNKNOWN","rcs_meters":null,"size_class":null,"mass_kg":null,"dimensions":null,"purposes":[],"wikipedia_slug":null,"has_3d_model":false,"image_url":null,"decayed_at":null,"tle_current":{"epoch":"2026-09-20T03:49:14.487744Z","epoch_age_seconds":98635,"freshness":"FRESH","line1":"1 68423U 26067H   26263.15919546  .00003588  00000+0  17179-3 0  9994","line2":"2 68423  97.4614 220.4134 0001445  72.9919 287.1474 15.19595495 26366","mean_motion":15.19595495,"eccentricity":0.0001445,"inclination_deg":97.4614,"raan_deg":220.4134,"arg_perigee_deg":72.9919,"mean_anomaly_deg":287.1474,"bstar":0.00017179,"rev_number":2636,"period_min":94.762060346856,"perigee_km":506.06729063581,"apogee_km":508.05711320517,"semimajor_km":6885.1992019205,"source":"CELESTRAK","updated_at":"2026-09-20T09:00:24.199762Z"}}}